This demonstration page uses our WeatherBlox Daily Observations layout. Learn more.

Left ArrowRight Arrow

44.31136, -96.79839

Hourly Observations for June 30, 2019

Temp ( °F °C ) Dew Point ( °F °C ) Humidity (%) Winds ( mph kmh ) Pressure ( in mb ) Visibility ( mi km ) Precip ( " mm )
12:56 am 00:56 Clear 82 27.8 72 22.2 72 72 S 10 17 29.96 1014 10 16 0.00 0.00
1:56 am 01:56 Clear 80 26.7 73 22.8 79 79 S 10 17 29.94 1014 10 16 0.00 0.00
2:56 am 02:56 Clear 80 26.7 73 22.8 79 79 S 10 17 29.91 1013 10 16 0.00 0.00
3:56 am 03:56 Clear 79 26.1 73 22.8 82 82 S 10 17 29.91 1013 10 16 0.00 0.00
4:56 am 04:56 Clear 77 25 72 22.2 85 85 S 10 17 29.90 1013 10 16 0.00 0.00
5:56 am 05:56 Sunny 76 24.4 72 22.2 88 88 SSW 9 15 29.90 1012 10 16 0.00 0.00
6:56 am 06:56 Sunny 76 24.4 72 22.2 88 88 S 6 9 29.92 1013 10 16 0.00 0.00
7:56 am 07:56 Sunny 79 26.1 72 22.2 79 79 SSW 5 7 29.95 1014 10 16 0.00 0.00
8:56 am 08:56 Sunny 81 27.2 73 22.8 77 77 W 7 11 29.94 1014 10 16 0.00 0.00
9:56 am 09:56 Sunny 84 28.9 74 23.3 72 72 W 10 17 29.94 1014 10 16 0.00 0.00
10:56 am 10:56 Sunny 84 28.9 76 24.4 77 77 WNW 13 20 29.95 1014 10 16 0.00 0.00
11:56 am 11:56 Sunny 86 30 77 25 75 75 N 8 13 29.95 1014 10 16 0.00 0.00
12:56 pm 12:56 Sunny 87 30.6 76 24.4 70 70 ENE 5 7 29.95 1014 10 16 0.00 0.00
1:56 pm 13:56 Sunny 89 31.7 76 24.4 65 65 undefined N/A 29.94 1014 10 16 0.00 0.00
2:56 pm 14:56 Mostly Sunny 90 32.2 79 26.1 70 70 NE 12 19 29.93 1014 10 16 0.00 0.00
3:56 pm 15:56 Sunny 88 31.1 78 25.6 73 73 NE 9 15 29.93 1014 10 16 0.00 0.00
4:56 pm 16:56 Mostly Sunny 87 30.6 78 25.6 75 75 NNE 9 15 29.92 1013 10 16 0.00 0.03
5:56 pm 17:56 Sunny 86 30 79 26.1 80 80 NNW 10 17 29.92 1013 10 16 0.00 0.00
6:56 pm 18:56 Sunny with Light Rain 85 29.4 79 26.1 82 82 NNW 7 11 29.92 1013 10 16 0.00 0.03
7:56 pm 19:56 Sunny 84 28.9 77 25 80 80 NE 5 7 29.92 1013 10 16 0.00 0.00
8:56 pm 20:56 Sunny 81 27.2 75 23.9 82 82 NNE 16 26 29.90 1012 10 16 0.00 0.00
9:21 pm 21:21 Partly Cloudy with Nearby Thunderstorms 75 24 68 20 78 78 NE 16 26 29.86 1011 10 16 0.00 0.00
9:36 pm 21:36 Mostly Clear 75 24 66 19 74 74 NNE 9 15 29.88 1012 10 16 0.00 0.00
9:56 pm 21:56 Clear 75 23.9 67 19.4 76 76 ENE 7 11 29.95 1014 10 16 0.00 0.00
10:56 pm 22:56 Partly Cloudy 74 23.3 67 19.4 79 79 ENE 7 11 29.98 1015 10 16 0.00 0.00
11:56 pm 23:56 Cloudy with Nearby Thunderstorms 74 23.3 71 21.7 91 91 ENE 13 20 29.96 1015 10 16 0.00 0.00

Powered by AerisWeather